User: anonymous   Login
Location: Sun City Center
(27.6996°N, 82.3528°W)
Time: 06:08:47
(UTC-05:00)
Language:

Cosmos 2084 Rocket - Orbit

View from above orbital plane
View from above orbital plane
View from above satellite
View from above satellite

Ground track
Ground track

The orbit data is extracted from the following two-line orbital elements,

1 20666U 90055D   14330.17524650  .00001618  00000-0  17661-3 0  3545
2 20666 062.7888 023.5245 0075290 009.8460 350.4086 14.90115746321888
Epoch (UTC): 26 November 2014 04:12:21
Eccentricity: 0.0075290
inclination: 62.7888°
perigee height: 545 km
apogee height: 650 km
right ascension of ascending node: 23.5245°
argument of perigee: 9.8460°
revolutions per day: 14.90115746
mean anomaly at epoch: 350.4086°
orbit number at epoch: 32188

The dashed part of the orbit path shows where the satellite is in the earth's shadow,  

DLR